• In Latvia
  • List of Countries
  • For 7 days
  • Water Temperature
  • Satellite Maps
  • Weather Map
  • Weather Widgets
  • user-avatar
    Login

    Hourly Weather Plavinas

    Today, 24 October, Wednesday

    Time Temperature Precipitation Wind Pressure Humidity
    00:00 +5°C° 0.4 mm 4 mps 727 mmHg 92%
    01:00 +5°C° 0.4 mm 4 mps 726 mmHg 92%
    02:00 +5°C° 0.4 mm 4 mps 726 mmHg 91%
    03:00 +5°C° 0.4 mm 4 mps 726 mmHg 91%
    04:00 +5°C° 0.4 mm 3 mps 726 mmHg 91%
    05:00 +5°C° 0.4 mm 3 mps 725 mmHg 91%
    06:00 +5°C° 0.3 mm 3 mps 726 mmHg 91%
    07:00 +5°C° 0.3 mm 3 mps 726 mmHg 91%
    08:00 +4°C° 0.3 mm 3 mps 726 mmHg 92%
    09:00 +5°C° 0.4 mm 3 mps 727 mmHg 90%
    10:00 +5°C° 0.4 mm 4 mps 727 mmHg 89%
    11:00 +5°C° 0.4 mm 4 mps 728 mmHg 87%
    12:00 +5°C° 0.6 mm 4 mps 729 mmHg 86%
    13:00 +5°C° 0.6 mm 5 mps 730 mmHg 85%
    14:00 +5°C° 0.6 mm 5 mps 732 mmHg 84%
    15:00 +5°C° 0.3 mm 5 mps 733 mmHg 83%
    16:00 +3°C° 0.3 mm 5 mps 734 mmHg 83%
    17:00 +3°C° 0.3 mm 5 mps 735 mmHg 82%
    18:00 +3°C° 0 mm 5 mps 736 mmHg 82%
    19:00 +2°C° 0 mm 5 mps 737 mmHg 82%
    20:00 +3°C° 0 mm 4 mps 738 mmHg 82%
    21:00 +3°C° 0 mm 4 mps 738 mmHg 84%
    22:00 +1°C° 0 mm 4 mps 739 mmHg 87%
    23:00 +1°C° 0 mm 4 mps 739 mmHg 90%

    Tomorrow, 25 October, Thursday

    Time Temperature Precipitation Wind Pressure Humidity
    00:00 +2°C° 0 mm 3 mps 740 mmHg 90%
    01:00 +2°C° 0 mm 3 mps 740 mmHg 90%
    02:00 +2°C° 0 mm 3 mps 740 mmHg 91%
    03:00 +1°C° 0 mm 3 mps 740 mmHg 92%
    04:00 +2°C° 0 mm 2 mps 740 mmHg 93%
    05:00 +2°C° 0 mm 2 mps 740 mmHg 95%
    06:00 +2°C° 0 mm 2 mps 739 mmHg 95%
    07:00 +2°C° 0 mm 2 mps 739 mmHg 95%
    08:00 +2°C° 0 mm 2 mps 739 mmHg 95%
    09:00 +3°C° 0 mm 2 mps 739 mmHg 90%
    10:00 +4°C° 0 mm 2 mps 738 mmHg 86%
    11:00 +5°C° 0 mm 2 mps 738 mmHg 81%
    12:00 +6°C° 0.2 mm 2 mps 738 mmHg 77%
    13:00 +6°C° 0.2 mm 2 mps 737 mmHg 74%
    14:00 +7°C° 0.2 mm 2 mps 737 mmHg 70%
    15:00 +6°C° 0.1 mm 2 mps 737 mmHg 74%
    16:00 +6°C° 0.1 mm 1 mps 737 mmHg 78%
    17:00 +5°C° 0.1 mm 1 mps 737 mmHg 82%
    18:00 +5°C° 0 mm 1 mps 737 mmHg 84%
    19:00 +4°C° 0 mm 1 mps 737 mmHg 87%
    20:00 +4°C° 0 mm 1 mps 737 mmHg 89%
    21:00 +4°C° 0.1 mm 1 mps 737 mmHg 90%
    22:00 +3°C° 0.1 mm 2 mps 738 mmHg 91%
    23:00 +2°C° 0.1 mm 2 mps 738 mmHg 91%

    Day after tomorrow, 26 October, Friday

    Time Temperature Precipitation Wind Pressure Humidity
    00:00 +3°C° 0.2 mm 2 mps 738 mmHg 91%
    01:00 +3°C° 0.2 mm 2 mps 738 mmHg 91%
    02:00 +3°C° 0.2 mm 2 mps 738 mmHg 91%
    03:00 +3°C° 0 mm 2 mps 738 mmHg 92%
    04:00 +2°C° 0 mm 2 mps 738 mmHg 93%
    05:00 +2°C° 0 mm 2 mps 738 mmHg 94%
    06:00 +2°C° 0 mm 2 mps 739 mmHg 93%
    07:00 +1°C° 0 mm 3 mps 739 mmHg 93%
    08:00 +1°C° 0 mm 3 mps 739 mmHg 93%
    09:00 +2°C° 0 mm 3 mps 739 mmHg 87%
    10:00 +3°C° 0 mm 3 mps 740 mmHg 82%
    11:00 +4°C° 0 mm 4 mps 740 mmHg 77%
    12:00 +5°C° 0.1 mm 4 mps 740 mmHg 74%
    13:00 +5°C° 0.1 mm 4 mps 740 mmHg 72%
    14:00 +6°C° 0.1 mm 4 mps 740 mmHg 70%
    15:00 +5°C° 0 mm 3 mps 740 mmHg 74%
    16:00 +4°C° 0 mm 3 mps 740 mmHg 79%
    17:00 +4°C° 0 mm 2 mps 740 mmHg 83%
    18:00 +4°C° 0 mm 2 mps 740 mmHg 85%
    19:00 +3°C° 0 mm 2 mps 740 mmHg 87%
    20:00 +4°C° 0 mm 1 mps 740 mmHg 89%
    21:00 +3°C° 0.3 mm 2 mps 739 mmHg 90%
    22:00 +3°C° 0.3 mm 2 mps 738 mmHg 90%
    23:00 +3°C° 0.3 mm 2 mps 738 mmHg 90%

    27 October, Saturday

    Time Temperature Precipitation Wind Pressure Humidity
    00:00 +3°C° 2.1 mm 3 mps 736 mmHg 91%
    01:00 +3°C° 2.1 mm 3 mps 735 mmHg 91%
    02:00 +3°C° 2.1 mm 4 mps 734 mmHg 91%
    03:00 +3°C° 2.1 mm 4 mps 734 mmHg 92%
    04:00 +3°C° 2.1 mm 4 mps 733 mmHg 92%
    05:00 +3°C° 2.1 mm 4 mps 732 mmHg 92%
    06:00 +3°C° 1.5 mm 4 mps 732 mmHg 91%
    07:00 +3°C° 1.5 mm 4 mps 732 mmHg 90%
    08:00 +3°C° 1.5 mm 4 mps 732 mmHg 89%
    09:00 +2°C° 0.7 mm 5 mps 733 mmHg 88%
    10:00 +1°C° 0.7 mm 5 mps 735 mmHg 86%
    11:00 +1°C° 0.7 mm 6 mps 736 mmHg 85%
    12:00 +2°C° 0.1 mm 5 mps 737 mmHg 83%
    13:00 +2°C° 0.1 mm 5 mps 739 mmHg 81%
    14:00 +3°C° 0.1 mm 4 mps 740 mmHg 79%
    15:00 +1°C° 0 mm 4 mps 741 mmHg 81%
    16:00 +2°C° 0 mm 3 mps 742 mmHg 83%
    17:00 +2°C° 0 mm 2 mps 743 mmHg 85%
    18:00 +1°C° 0 mm 2 mps 744 mmHg 87%
    19:00 +1°C° 0 mm 2 mps 745 mmHg 88%
    20:00 -1°C° 0 mm 2 mps 746 mmHg 90%
    21:00 -1°C° 0 mm 2 mps 746 mmHg 91%
    22:00 -2°C° 0 mm 2 mps 747 mmHg 91%
    23:00 0°C° 0 mm 1 mps 748 mmHg 91%

    28 October, Sunday

    Time Temperature Precipitation Wind Pressure Humidity
    00:00 0°C° 0 mm 1 mps 748 mmHg 92%
    01:00 0°C° 0 mm 1 mps 749 mmHg 92%
    02:00 0°C° 0 mm 1 mps 750 mmHg 92%
    03:00 0°C° 0 mm 1 mps 750 mmHg 91%
    04:00 +1°C° 0 mm 1 mps 751 mmHg 91%
    05:00 +1°C° 0 mm 1 mps 751 mmHg 90%
    06:00 +1°C° 0 mm 1 mps 752 mmHg 91%
    07:00 +1°C° 0 mm 1 mps 752 mmHg 91%
    08:00 +1°C° 0 mm 1 mps 753 mmHg 92%
    09:00 +2°C° 0 mm 1 mps 754 mmHg 88%
    10:00 +3°C° 0 mm 1 mps 754 mmHg 83%
    11:00 +4°C° 0 mm 1 mps 755 mmHg 79%
    12:00 +4°C° 0 mm 1 mps 755 mmHg 77%
    13:00 +4°C° 0 mm 2 mps 756 mmHg 74%
    14:00 +4°C° 0 mm 2 mps 756 mmHg 72%
    15:00 +2°C° 0 mm 2 mps 757 mmHg 77%
    16:00 +2°C° 0 mm 1 mps 757 mmHg 81%
    17:00 +1°C° 0 mm 1 mps 758 mmHg 86%
    18:00 0°C° 0 mm 1 mps 758 mmHg 86%
    19:00 0°C° 0 mm 1 mps 759 mmHg 86%
    20:00 -1°C° 0 mm 1 mps 759 mmHg 86%
    21:00 -1°C° 0 mm 1 mps 760 mmHg 86%
    22:00 -1°C° 0 mm 1 mps 760 mmHg 85%
    23:00 -1°C° 0 mm 1 mps 760 mmHg 85%

    29 October, Monday

    Time Temperature Precipitation Wind Pressure Humidity
    00:00 -1°C° 0 mm 1 mps 760 mmHg 85%
    01:00 -1°C° 0 mm 1 mps 760 mmHg 85%
    02:00 -1°C° 0 mm 1 mps 761 mmHg 85%
    03:00 -1°C° 0 mm 1 mps 760 mmHg 85%
    04:00 -2°C° 0 mm 1 mps 760 mmHg 84%
    05:00 -4°C° 0 mm 2 mps 760 mmHg 83%
    06:00 -3°C° 0 mm 2 mps 760 mmHg 82%
    07:00 -3°C° 0 mm 2 mps 760 mmHg 81%
    08:00 -3°C° 0 mm 2 mps 761 mmHg 79%
    09:00 -2°C° 0 mm 2 mps 761 mmHg 75%
    10:00 -1°C° 0 mm 2 mps 761 mmHg 71%
    11:00 +1°C° 0 mm 2 mps 761 mmHg 67%
    12:00 +1°C° 0 mm 2 mps 761 mmHg 66%
    13:00 +2°C° 0 mm 2 mps 760 mmHg 65%
    14:00 +2°C° 0 mm 2 mps 760 mmHg 64%
    15:00 +1°C° 0 mm 2 mps 760 mmHg 70%
    16:00 -1°C° 0 mm 2 mps 760 mmHg 76%
    17:00 -2°C° 0 mm 2 mps 760 mmHg 82%
    18:00 -2°C° 0 mm 2 mps 760 mmHg 83%
    19:00 -3°C° 0 mm 2 mps 760 mmHg 84%
    20:00 -3°C° 0 mm 2 mps 760 mmHg 85%
    21:00 -3°C° 0 mm 2 mps 760 mmHg 84%
    22:00 -3°C° 0 mm 2 mps 760 mmHg 84%
    23:00 -4°C° 0 mm 2 mps 760 mmHg 83%

    30 October, Tuesday

    Time Temperature Precipitation Wind Pressure Humidity
    00:00 -4°C° 0 mm 2 mps 760 mmHg 82%
    01:00 -4°C° 0 mm 2 mps 761 mmHg 82%
    02:00 -4°C° 0 mm 2 mps 761 mmHg 82%
    03:00 -4°C° 0 mm 2 mps 761 mmHg 82%
    04:00 -4°C° 0 mm 2 mps 761 mmHg 82%
    05:00 -4°C° 0 mm 2 mps 761 mmHg 82%
    06:00 -4°C° 0 mm 2 mps 761 mmHg 81%
    07:00 -4°C° 0 mm 2 mps 762 mmHg 80%
    08:00 -5°C° 0 mm 3 mps 762 mmHg 80%
    09:00 -4°C° 0 mm 3 mps 762 mmHg 74%
    10:00 -2°C° 0 mm 3 mps 763 mmHg 69%
    11:00 -2°C° 0 mm 4 mps 763 mmHg 63%
    12:00 -2°C° 0 mm 4 mps 763 mmHg 63%
    13:00 -1°C° 0 mm 4 mps 764 mmHg 63%
    14:00 -1°C° 0 mm 4 mps 764 mmHg 63%
    15:00 -2°C° 0 mm 4 mps 764 mmHg 67%
    16:00 -3°C° 0 mm 4 mps 765 mmHg 71%
    17:00 -3°C° 0 mm 4 mps 765 mmHg 76%
    18:00 -4°C° 0 mm 4 mps 765 mmHg 74%
    19:00 -4°C° 0 mm 4 mps 766 mmHg 71%
    20:00 -5°C° 0 mm 5 mps 766 mmHg 69%
    21:00 -5°C° 0 mm 4 mps 766 mmHg 69%
    22:00 -5°C° 0 mm 4 mps 766 mmHg 69%
    23:00 -5°C° 0 mm 4 mps 767 mmHg 68%
    Show more